Juneau, WI

9:41 AM CST on December 13, 2019 (GMT -0600)
Dodge County

Weather History for KUNU - October, 2019

Change the Weather History Date:

Tuesday, October 29, 2019

  Actual Average Record
Temperature  
Mean Temperature 32 °F -  
Max Temperature 37 °F 51 °F 73 °F (1999)
Min Temperature 27 °F 37 °F 15 °F (1988)
Degree Days  
Heating Degree Days 33    
Moisture  
Dew Point 27 °F    
Average Humidity 84    
Maximum Humidity 99    
Minimum Humidity 59    
Precipitation  
Precipitation 0.16 in - - ()
Sea Level Pressure  
Sea Level Pressure 30.20 in    
Wind  
Wind Speed 2 mph ()    
Max Wind Speed 9 mph    
Max Gust Speed -    
Visibility 8.2 miles    
Events Snow    
Averages and records for this station are not official NWS values.
T = Trace of Precipitation, MM = Missing Value Source: Averaged Metar Reports

Daily Weather History Graph

Daily Weather History Graph

Search for Another Location

Airport or City:

Astronomy

Oct. 29, 2019 Rise Set
Actual Time 7:25 AM CDT 5:50 PM CDT
Civil Twilight 6:56 AM CDT 6:19 PM CDT
Nautical Twilight 6:22 AM CDT 6:53 PM CDT
Astronomical Twilight 5:49 AM CDT 7:26 PM CDT
Moon 9:01 AM CDT (10/29) 7:12 PM CDT (10/29)
Length of Visible Light 11h 23m
Length of Day
10h 24m
Waxing Crescent, 3% of the Moon is Illuminated
Oct 29
Waxing Crescent
Nov 4
First Quarter
Nov 12
Full
Nov 19
Last Quarter
Nov 26
New

Hourly Weather History & Observations

Time (CDT) Temp. Windchill Dew Point Humidity Pressure Visibility Wind Dir Wind Speed Gust Speed Precip Events Conditions
12:15 AM 32.0 °F 24.2 °F 30.4 °F 94% 30.08 in 1.2 mi NW 9.2 mph - 0.01 in Snow Light Snow
12:35 AM 31.5 °F 25.8 °F 30.7 °F 97% 30.08 in 0.8 mi NW 5.8 mph - 0.02 in Snow Light Snow
12:55 AM 31.1 °F 27.7 °F 30.7 °F 99% 30.09 in 0.8 mi NNW 3.5 mph - 0.03 in Snow Light Snow
1:15 AM 31.1 °F - 30.6 °F 98% 30.09 in 0.5 mi Calm Calm - 0.01 in Snow Snow
1:35 AM 31.1 °F - 30.7 °F 99% 30.10 in 0.2 mi Calm Calm - 0.04 in Snow Snow
1:55 AM 31.1 °F - 30.9 °F 99% 30.09 in 0.2 mi Calm Calm - 0.08 in Snow Snow
2:15 AM 31.1 °F - 30.9 °F 99% 30.10 in 0.5 mi Calm Calm - 0.02 in Snow Snow
2:35 AM 30.9 °F - 30.6 °F 99% 30.10 in 1.0 mi Calm Calm - 0.02 in Snow Light Snow
2:55 AM 30.9 °F - 30.2 °F 97% 30.11 in 0.8 mi Calm Calm - 0.03 in Snow Light Snow
3:15 AM 30.7 °F - 30.2 °F 98% 30.10 in 0.5 mi Calm Calm - 0.01 in Snow Light Snow
3:35 AM 30.6 °F - 30.0 °F 98% 30.09 in 0.8 mi Calm Calm - 0.02 in Snow Light Snow
3:55 AM 30.2 °F - 29.8 °F 99% 30.08 in 2.5 mi Calm Calm - 0.02 in Snow Light Snow
4:15 AM 30.2 °F - 29.7 °F 98% 30.09 in 2.5 mi Calm Calm - N/A Snow Light Snow
4:35 AM 30.2 °F - 29.8 °F 99% 30.09 in 7.0 mi Calm Calm - N/A Snow Light Snow
4:55 AM 30.2 °F - 29.7 °F 98% 30.10 in 10.0 mi Calm Calm - N/A   Overcast
5:15 AM 30.2 °F - 29.3 °F 96% 30.11 in 10.0 mi Calm Calm - N/A   Overcast
5:35 AM 30.2 °F - 29.3 °F 96% 30.12 in 10.0 mi Calm Calm - N/A   Overcast
5:55 AM 30.2 °F - 29.3 °F 96% 30.13 in 10.0 mi Calm Calm - N/A   Overcast
6:15 AM 30.0 °F - 29.1 °F 96% 30.14 in 10.0 mi Calm Calm - N/A   Overcast
6:35 AM 30.0 °F - 28.9 °F 96% 30.14 in 10.0 mi Calm Calm - N/A   Overcast
6:55 AM 29.8 °F 26.3 °F 28.2 °F 94% 30.15 in 10.0 mi NW 3.5 mph - N/A   Overcast
7:15 AM 29.5 °F - 27.5 °F 92% 30.15 in 10.0 mi Calm Calm - N/A   Overcast
7:35 AM 29.3 °F - 27.0 °F 91% 30.15 in 10.0 mi Calm Calm - N/A   Overcast
7:55 AM 29.3 °F 25.6 °F 26.6 °F 90% 30.15 in 10.0 mi WNW 3.5 mph - N/A   Overcast
8:35 AM 28.2 °F - 26.1 °F 92% 30.16 in 10.0 mi Calm Calm - N/A   Scattered Clouds
8:55 AM 28.4 °F 23.3 °F 26.4 °F 92% 30.18 in 10.0 mi NW 4.6 mph - N/A   Clear
9:15 AM 29.3 °F - 26.4 °F 89% 30.19 in 10.0 mi Calm Calm - N/A   Clear
9:35 AM 30.2 °F 25.4 °F 26.6 °F 86% 30.19 in 10.0 mi NW 4.6 mph - N/A   Clear
9:55 AM 30.6 °F 25.8 °F 26.6 °F 85% 30.19 in 10.0 mi NW 4.6 mph - N/A   Clear
10:15 AM 31.1 °F 26.4 °F 26.4 °F 83% 30.19 in 10.0 mi NW 4.6 mph - N/A   Scattered Clouds
10:35 AM 31.3 °F 26.6 °F 26.1 °F 81% 30.20 in 10.0 mi NW 4.6 mph - N/A   Scattered Clouds
11:15 AM 32.0 °F - 26.4 °F 80% 30.23 in 10.0 mi Calm Calm - N/A   Mostly Cloudy
11:35 AM 32.0 °F - 26.6 °F 80% 30.24 in 10.0 mi Calm Calm - N/A   Mostly Cloudy
11:55 AM 32.7 °F 28.3 °F 27.0 °F 79% 30.23 in 10.0 mi WNW 4.6 mph - N/A   Mostly Cloudy
12:15 PM 33.1 °F - 26.6 °F 77% 30.22 in 10.0 mi Calm Calm - N/A   Mostly Cloudy
12:55 PM 33.6 °F 28.4 °F 25.9 °F 73% 30.23 in 10.0 mi WNW 5.8 mph - N/A   Scattered Clouds
1:15 PM 34.5 °F 29.4 °F 26.1 °F 71% 30.23 in 10.0 mi West 5.8 mph - N/A   Scattered Clouds
1:35 PM 35.4 °F 30.5 °F 25.5 °F 67% 30.22 in 10.0 mi West 5.8 mph - N/A   Mostly Cloudy
1:55 PM 35.6 °F 29.2 °F 25.0 °F 65% 30.23 in 10.0 mi West 8.1 mph - N/A   Overcast
2:15 PM 36.3 °F 31.6 °F 26.1 °F 66% 30.22 in 10.0 mi WNW 5.8 mph - N/A   Overcast
2:35 PM 36.7 °F 34.1 °F 27.0 °F 68% 30.24 in 10.0 mi West 3.5 mph - N/A   Overcast
2:55 PM 37.0 °F 34.5 °F 25.7 °F 64% 30.23 in 10.0 mi West 3.5 mph - N/A   Overcast
3:15 PM 37.6 °F 33.1 °F 25.3 °F 61% 30.24 in 10.0 mi NW 5.8 mph - N/A   Overcast
3:35 PM 37.9 °F - 26.2 °F 63% 30.24 in 10.0 mi Calm Calm - N/A   Mostly Cloudy
3:55 PM 37.9 °F 35.5 °F 25.5 °F 61% 30.24 in 10.0 mi West 3.5 mph - N/A   Mostly Cloudy
4:15 PM 37.9 °F 33.5 °F 25.5 °F 61% 30.25 in 10.0 mi WSW 5.8 mph - N/A   Overcast
4:35 PM 37.8 °F 35.3 °F 24.6 °F 59% 30.25 in 10.0 mi West 3.5 mph - N/A   Mostly Cloudy
4:55 PM 37.4 °F - 24.3 °F 59% 30.25 in 10.0 mi Calm Calm - N/A   Scattered Clouds
5:15 PM 37.0 °F - 24.1 °F 59% 30.25 in 10.0 mi Calm Calm - N/A   Clear
5:35 PM 36.5 °F - 24.6 °F 62% 30.25 in 10.0 mi Calm Calm - N/A   Clear
5:55 PM 35.8 °F - 24.6 °F 64% 30.25 in 10.0 mi Calm Calm - N/A   Clear
6:35 PM 34.2 °F - 24.6 °F 68% 30.26 in 10.0 mi Calm Calm - N/A   Clear
6:55 PM 33.3 °F - 24.8 °F 71% 30.27 in 10.0 mi Calm Calm - N/A   Clear
7:15 PM 32.2 °F - 24.6 °F 74% 30.27 in 10.0 mi Calm Calm - N/A   Clear
7:35 PM 30.9 °F - 27.1 °F 86% 30.27 in 10.0 mi Calm Calm - N/A   Clear
7:55 PM 31.1 °F - 26.6 °F 83% 30.27 in 10.0 mi Calm Calm - N/A   Clear
8:35 PM 28.8 °F - 26.2 °F 90% 30.29 in 10.0 mi Calm Calm - N/A   Scattered Clouds
8:55 PM 29.7 °F - 26.6 °F 88% 30.29 in 10.0 mi Calm Calm - N/A   Clear
9:35 PM 29.1 °F - 25.7 °F 87% 30.31 in 10.0 mi Calm Calm - N/A   Clear
9:55 PM 29.1 °F - 26.2 °F 89% 30.31 in 10.0 mi Calm Calm - N/A   Clear
10:15 PM 29.1 °F - 25.7 °F 87% 30.31 in 10.0 mi Calm Calm - N/A   Clear
10:35 PM 28.4 °F - 25.7 °F 90% 30.32 in 10.0 mi Calm Calm - N/A   Scattered Clouds
10:55 PM 28.9 °F - 26.2 °F 90% 30.32 in 10.0 mi Calm Calm - N/A   Scattered Clouds
11:15 PM 28.6 °F - 25.7 °F 89% 30.31 in 10.0 mi Calm Calm - N/A   Mostly Cloudy
11:35 PM 27.7 °F - 25.9 °F 93% 30.31 in 10.0 mi Calm Calm - N/A   Scattered Clouds
11:55 PM 28.0 °F - 25.5 °F 90% 30.31 in 10.0 mi Calm Calm - N/A   Clear